Theta_e
305 305 305 306 306 307 307 307 307 307 307 307 307 307 308 308 308 309 310 310 310 310 311 311 311 312 312 312 313 313 313 313 312 311 308 306 307 308 310 312 314 314 314 314 313 313 310 310 309 308 310 309 308 308 308 306 306 319 321 312 312 314 311 313 317 310 308 314 312 305 302 302 300 298 296 295 299 300 299 299 298 296 296 297 296 297 298 298
304 305 305 305 306 306 307 307 307 307 306 306 307 307 308 308 308 309 310 309 310 310 310 310 311 311 311 312 312 313 314 313 312 309 307 308 309 310 313 313 314 314 315 315 313 312 311 309 306 307 312 310 307 309 309 306 307 319 323 314 313 315 310 309 314 311 309 313 309 302 300 300 299 298 297 298 300 300 299 299 299 299 297 297 297 297 298 298
305 305 305 305 306 306 307 307 307 307 306 306 306 306 307 307 308 308 309 309 309 310 310 310 310 310 310 311 311 313 313 313 312 309 308 308 310 311 313 314 314 315 315 314 312 311 310 309 306 307 311 308 306 308 308 308 309 311 316 319 313 311 310 306 309 311 308 307 305 301 299 299 298 297 298 300 300 299 301 301 298 299 299 298 297 297 298 298
305 305 306 305 306 306 306 307 307 307 306 306 306 307 306 307 308 308 309 309 309 310 309 309 309 310 310 309 311 311 312 314 311 308 308 308 310 312 313 314 314 314 314 313 312 310 308 306 305 308 309 310 310 309 307 307 310 309 312 319 312 309 311 306 305 306 305 304 304 302 300 300 298 298 300 300 300 299 302 303 301 301 301 300 297 296 298 298
306 306 306 306 305 306 307 307 307 307 307 307 306 306 306 306 307 308 309 309 310 309 309 310 309 310 309 310 310 309 315 318 310 307 308 308 310 312 313 313 313 313 313 312 310 308 308 306 308 314 312 311 314 313 309 304 306 308 306 309 308 309 310 304 302 302 302 302 304 303 300 300 298 299 301 300 300 301 301 301 301 301 300 298 297 296 297 298
306 306 306 305 305 306 307 307 307 307 307 307 307 307 307 307 307 308 309 309 309 309 309 310 309 310 309 310 310 309 317 316 307 307 308 308 310 311 312 312 311 311 311 311 310 307 309 307 311 318 311 307 309 309 307 303 304 307 305 304 303 306 306 303 302 301 303 304 303 302 299 300 301 300 299 298 301 303 299 296 296 297 297 297 297 296 296 297
306 306 306 305 305 306 306 307 307 307 307 307 307 307 307 306 306 307 308 309 309 309 309 309 309 310 309 311 311 310 313 310 305 306 307 308 310 311 312 311 310 310 311 310 308 306 307 307 309 312 309 307 305 304 303 302 304 306 306 303 301 303 303 301 302 302 304 305 301 300 299 300 301 300 297 298 303 302 295 293 294 295 296 297 296 296 296 297
306 306 306 306 306 305 306 307 307 307 307 307 307 307 307 307 307 307 309 309 309 310 309 309 310 310 311 311 311 310 310 307 305 306 307 309 310 311 311 310 309 310 309 307 306 305 306 308 308 309 309 306 305 304 303 303 304 305 304 303 301 301 301 299 302 305 304 303 299 299 301 301 300 298 298 301 304 300 294 293 294 294 295 295 295 296 296 297
306 306 306 306 306 305 306 306 306 307 306 307 307 307 307 307 307 308 309 309 309 310 309 310 310 310 311 310 310 311 308 306 306 306 307 309 309 310 310 310 309 309 308 305 305 306 309 309 307 308 307 304 305 306 305 305 305 305 303 302 301 301 300 301 303 304 304 302 300 301 302 301 298 297 300 304 302 296 293 294 293 294 297 295 294 296 296 296
306 306 306 306 306 306 306 306 306 306 306 307 306 307 308 307 307 309 309 309 309 310 310 309 309 310 311 310 311 311 307 306 306 305 307 308 308 309 309 308 308 308 306 305 305 305 309 308 303 303 304 304 304 304 304 305 304 302 301 301 301 302 301 302 303 303 303 302 301 301 302 301 298 299 301 302 298 294 296 298 295 296 302 297 292 295 295 294
305 305 306 306 306 306 306 306 306 306 307 307 307 308 307 307 307 308 309 309 309 310 310 309 309 310 309 308 310 310 306 306 306 305 306 307 308 308 308 307 307 307 306 304 303 304 305 304 301 302 305 304 302 302 302 302 302 300 302 303 302 303 302 302 304 303 302 301 300 300 301 301 299 301 303 301 297 295 299 301 298 299 303 298 292 293 294 294
306 306 306 306 306 306 306 306 306 307 307 307 308 307 307 308 307 308 308 308 309 309 309 309 309 309 308 306 307 307 305 307 307 305 305 306 307 306 306 307 307 307 306 304 302 303 304 302 302 305 306 303 303 304 301 301 303 301 304 305 303 306 304 301 302 302 301 301 300 299 300 302 303 304 303 299 297 297 299 300 300 300 301 299 293 290 293 295
306 306 306 306 306 306 307 307 307 307 307 308 308 307 308 307 307 308 308 308 308 309 309 309 309 309 311 308 306 306 306 307 307 306 305 305 305 305 305 306 306 306 306 304 302 302 303 302 303 304 303 303 303 302 301 302 303 302 304 304 306 310 305 300 301 302 301 300 299 299 302 307 307 306 301 297 297 297 299 300 301 300 300 301 297 292 291 294
306 306 306 306 306 307 307 307 307 307 308 308 308 308 307 307 308 308 308 308 308 309 308 309 308 308 310 308 306 306 307 308 307 307 306 305 305 305 304 306 305 305 305 304 303 302 303 303 303 302 300 302 302 301 305 305 305 303 301 304 309 311 304 300 302 303 301 300 298 299 304 309 307 306 299 295 297 298 301 301 301 301 300 300 300 298 293 293
306 306 306 306 306 307 307 308 308 308 308 309 309 308 307 308 308 307 308 308 308 308 307 308 308 309 310 307 305 306 308 308 308 308 308 307 305 305 305 305 305 305 305 304 304 303 303 303 304 303 301 301 302 306 309 308 307 305 302 306 309 308 304 302 302 303 301 300 299 300 305 309 307 305 299 295 296 297 302 304 302 302 302 301 301 301 297 293
306 306 306 306 306 307 308 308 309 310 311 311 311 309 308 308 308 308 308 307 308 308 307 308 306 309 311 307 305 306 307 307 308 308 308 308 307 306 306 305 305 305 305 304 305 305 304 305 304 301 303 305 307 312 312 309 311 309 307 308 307 306 306 303 302 302 301 300 300 301 304 308 306 303 299 296 296 297 300 304 304 304 303 303 302 301 300 297
306 306 306 307 307 307 308 309 310 311 311 311 311 309 308 308 307 308 307 308 308 307 308 307 305 308 309 306 306 307 306 306 307 308 308 308 307 308 307 307 308 305 306 307 306 305 305 307 305 302 305 304 306 315 315 309 310 309 309 309 303 303 304 304 303 301 301 301 301 301 304 308 308 304 303 299 296 297 300 303 305 304 303 302 301 302 303 303
306 307 307 308 307 308 308 309 309 310 310 310 310 309 309 309 308 308 308 309 309 310 311 308 309 311 307 306 307 306 305 306 307 308 308 308 307 307 307 306 305 305 314 314 307 309 308 308 308 310 312 305 305 317 314 306 308 308 310 309 304 303 302 304 304 300 301 304 303 303 304 308 310 308 307 300 295 298 301 301 301 302 302 301 302 304 304 306
307 307 307 308 307 308 308 308 309 309 309 309 309 309 309 308 308 309 308 308 313 315 313 310 310 313 309 307 306 305 306 306 308 307 307 308 307 307 305 304 305 307 321 320 309 311 311 312 315 315 314 307 304 308 307 303 306 308 309 309 307 306 304 304 303 299 300 303 305 306 306 308 310 311 311 303 296 297 299 298 298 300 301 301 303 304 305 308
307 307 308 308 308 308 308 308 308 308 308 308 309 309 311 315 314 312 309 309 309 307 309 309 308 310 310 308 306 307 306 306 308 307 308 307 306 306 303 308 314 310 316 317 307 305 307 311 314 309 305 303 302 301 300 300 301 305 310 311 309 308 307 304 301 300 300 303 306 305 306 308 310 312 311 303 297 298 300 300 300 300 301 303 304 305 308 307
307 307 308 308 308 308 308 308 308 308 308 308 310 309 312 321 317 310 310 310 305 303 306 306 305 308 308 306 306 305 307 309 308 306 308 306 306 305 304 313 324 310 306 307 306 304 309 313 307 302 301 300 300 298 298 301 303 306 310 313 310 306 307 304 301 303 302 303 307 304 306 311 313 313 309 301 300 303 303 303 304 304 303 303 304 306 308 303
306 307 308 308 308 308 307 308 308 308 309 308 311 310 308 313 311 307 311 312 307 305 306 305 306 309 305 305 305 303 309 315 310 308 307 307 309 308 310 318 322 311 306 308 311 309 311 309 301 298 300 300 300 298 300 305 308 309 308 309 309 305 305 305 301 305 304 304 309 307 306 310 310 310 310 305 305 306 303 302 303 304 304 304 305 307 308 306
307 307 307 308 308 307 308 309 308 308 309 309 310 309 307 308 308 307 310 313 311 307 309 310 312 313 309 308 305 307 314 312 310 311 306 309 313 310 316 322 318 314 312 312 317 317 310 303 300 299 299 302 306 302 303 308 310 310 308 307 307 304 305 305 302 307 306 302 305 307 305 309 308 307 309 306 303 303 303 303 301 300 301 303 303 303 305 307
307 307 307 308 307 307 308 308 309 309 309 310 309 308 308 309 309 310 313 317 315 309 308 307 308 310 311 308 306 310 316 308 308 311 305 310 314 308 312 315 315 314 307 306 313 316 308 300 299 301 301 303 310 311 309 311 310 308 309 308 307 305 304 305 304 306 306 301 301 305 310 317 314 309 307 304 301 301 303 303 303 303 301 300 300 300 300 302
307 307 307 307 306 308 308 308 310 309 308 309 309 309 309 310 309 309 317 325 319 310 308 305 305 307 306 307 307 306 311 310 307 307 304 308 311 308 307 306 311 311 302 303 310 310 306 299 297 305 306 305 311 315 309 308 311 310 306 303 303 304 304 308 309 308 309 307 302 303 313 324 320 314 311 308 307 305 304 303 304 306 304 303 304 303 301 300
307 307 307 307 307 308 309 310 309 307 310 309 308 310 309 310 309 307 321 334 321 309 309 308 307 308 306 307 307 304 309 310 304 303 305 305 304 305 309 307 307 307 303 305 309 306 304 300 300 307 312 312 313 311 302 303 314 309 303 301 302 304 306 310 311 308 310 309 302 302 311 319 319 318 313 309 310 308 305 305 305 306 305 306 307 305 303 301
307 307 307 307 307 308 310 311 309 308 311 309 309 311 308 309 307 306 320 328 315 309 310 310 308 308 308 306 305 306 307 306 304 304 304 304 302 304 313 310 306 307 303 305 309 304 302 305 307 309 315 318 316 309 301 301 310 306 303 303 304 304 306 309 309 309 310 306 305 307 306 309 315 316 310 305 308 308 306 307 306 306 305 306 306 306 303 301
306 307 307 307 307 309 310 310 309 309 311 311 310 309 308 307 304 312 325 318 307 309 310 310 309 307 307 305 305 309 307 305 307 306 302 303 302 306 315 310 308 309 302 309 314 302 299 308 308 308 316 317 309 304 301 301 305 304 302 302 302 303 306 307 308 312 311 307 311 312 303 307 320 321 312 305 305 309 310 309 309 307 305 305 307 306 304 300
306 307 307 307 307 310 310 310 310 309 309 310 308 307 308 306 306 317 328 314 306 310 310 309 308 307 308 308 309 312 308 306 311 307 302 303 301 305 312 307 308 309 301 309 315 303 299 303 302 304 312 310 302 300 301 303 304 302 301 302 302 304 306 305 307 311 313 313 315 312 303 307 320 323 316 306 306 313 313 311 310 307 304 303 304 305 304 301
306 308 306 307 308 310 310 310 309 307 308 307 306 308 307 311 324 327 318 312 309 309 310 309 308 308 310 310 310 312 310 310 312 308 304 306 305 306 304 301 308 313 307 308 309 302 299 299 299 302 304 302 301 301 299 301 302 300 302 305 305 308 307 307 312 313 315 321 318 309 304 306 314 323 319 309 309 312 310 312 313 311 309 306 303 304 303 302
307 307 307 307 309 310 311 310 309 307 308 307 305 308 308 317 337 331 311 309 311 311 311 310 311 313 314 311 310 312 312 311 311 312 312 314 315 315 308 305 313 320 319 317 309 302 302 303 302 301 300 299 301 303 299 298 301 302 307 308 307 313 310 311 324 320 315 323 316 307 304 304 312 322 318 311 311 309 306 309 312 312 313 311 305 302 301 300
307 307 307 307 308 311 311 310 310 308 308 308 306 314 325 320 320 320 311 308 311 313 314 310 310 314 316 314 312 311 312 311 310 312 315 315 316 315 310 310 313 314 315 316 312 307 306 306 302 299 300 298 301 307 304 302 303 304 310 315 320 327 319 318 330 322 317 320 308 302 304 304 313 320 314 314 314 309 305 305 307 307 308 311 308 303 301 299
307 307 307 307 310 311 310 309 309 308 308 308 307 322 341 327 312 314 315 312 310 309 311 311 311 311 313 315 312 308 308 308 309 309 306 309 316 309 302 304 305 308 312 309 311 315 308 304 303 302 301 298 300 307 308 307 308 308 309 313 322 327 320 321 325 316 316 318 305 299 304 311 317 316 313 315 311 306 304 301 301 302 302 305 304 301 302 302
307 308 306 308 310 309 310 309 307 308 307 307 314 322 326 319 313 312 314 313 309 307 309 310 311 312 312 313 309 306 310 307 305 312 309 309 320 314 306 304 300 309 321 312 310 316 311 306 306 303 301 300 300 302 304 303 307 308 303 306 317 320 316 318 322 318 316 318 312 304 307 317 317 310 310 310 306 304 304 302 299 299 300 300 300 300 303 304
307 307 306 309 308 308 309 306 306 309 306 314 332 328 318 319 318 317 318 313 310 311 309 308 316 321 315 312 309 305 309 307 305 313 316 310 315 316 310 307 303 307 317 312 307 309 310 309 306 301 300 300 300 299 298 302 307 305 300 309 314 314 318 315 310 312 311 314 320 311 309 317 312 308 310 308 307 306 305 306 305 305 306 305 306 308 308 307
307 306 308 307 306 307 307 305 308 308 307 324 338 323 319 322 315 316 318 312 312 314 310 311 321 325 316 311 312 308 306 308 308 311 313 309 310 311 309 307 305 305 310 313 312 309 310 308 303 302 300 297 299 298 296 302 305 304 306 311 305 303 317 317 303 303 306 311 320 312 311 318 311 309 314 314 315 313 310 311 308 308 310 309 310 311 312 311
306 306 307 305 306 306 304 306 309 305 313 333 330 315 318 315 306 313 318 311 311 314 318 319 313 312 317 313 312 314 311 308 308 311 311 308 307 310 310 307 302 301 303 308 311 312 316 311 303 303 304 299 297 298 299 299 300 306 309 306 301 301 311 317 313 317 319 319 322 315 314 319 315 313 318 319 318 315 314 313 310 311 310 308 309 308 307 308
306 307 306 305 306 305 304 310 308 307 324 335 321 313 314 309 303 308 312 307 308 315 323 326 312 307 317 319 313 314 312 309 312 315 314 309 307 309 311 309 302 300 299 301 306 308 312 311 305 302 304 301 296 300 304 301 296 302 305 300 304 310 312 317 319 322 322 318 322 324 318 313 314 318 318 316 316 315 314 314 313 313 310 307 307 304 302 301
306 309 309 305 305 305 307 310 307 314 326 324 321 318 309 308 306 303 304 306 308 313 317 320 314 309 312 317 317 313 309 312 315 315 313 310 307 305 305 306 303 302 300 301 306 306 307 310 309 305 301 300 301 304 308 308 300 301 304 301 306 312 311 313 313 313 318 317 319 327 325 319 320 323 319 315 316 315 312 312 313 312 309 306 303 301 301 299
305 313 311 304 306 307 306 308 316 331 328 315 320 319 305 306 307 301 301 304 306 309 313 318 318 315 312 311 313 312 310 313 316 314 311 308 308 306 302 304 305 303 301 300 304 306 307 309 308 307 302 302 305 305 309 312 306 306 310 307 308 308 304 306 307 306 314 321 319 320 326 330 326 320 318 316 316 314 311 310 310 309 308 305 302 301 301 299
305 313 310 305 307 307 307 313 318 325 325 312 311 311 306 307 306 302 301 301 301 303 308 317 318 317 317 314 312 312 312 314 315 315 312 308 309 308 302 300 303 302 303 304 304 306 308 312 315 312 309 311 311 302 298 300 300 303 308 308 312 314 312 317 315 305 306 314 317 316 321 331 327 316 317 317 314 314 310 307 307 307 307 305 303 302 300 299
312 315 306 305 308 305 313 323 310 306 318 314 306 306 307 307 305 304 302 300 302 303 304 311 313 314 318 316 313 313 315 316 313 312 312 308 308 308 301 297 299 300 304 308 306 302 306 317 324 316 310 309 305 297 295 295 294 297 300 302 309 313 318 328 321 312 307 304 305 309 315 326 325 315 316 317 313 312 308 304 307 307 305 304 303 302 300 300
324 318 305 305 308 307 316 319 309 308 314 307 301 302 303 305 305 304 303 303 304 304 306 310 308 309 312 309 310 313 315 316 311 308 311 308 304 302 298 296 298 300 304 307 306 301 304 314 319 316 315 310 301 296 295 293 294 300 302 301 304 306 313 321 317 314 314 308 308 311 316 328 328 315 313 316 313 311 307 305 308 308 305 305 304 303 302 301
319 309 306 307 305 307 315 317 318 318 310 302 303 303 301 302 304 305 305 307 305 304 310 311 305 306 307 306 309 310 309 311 309 305 307 307 302 298 296 297 297 300 303 305 306 303 304 313 318 319 322 320 313 309 307 302 301 305 305 301 302 304 308 312 310 310 314 313 313 316 322 333 330 316 313 314 312 313 309 306 308 308 306 306 304 304 302 301
311 306 311 314 306 305 311 316 326 324 309 306 308 305 303 303 302 303 305 306 304 304 309 309 305 306 306 304 307 306 303 306 308 305 303 304 301 297 297 297 296 300 302 300 301 303 305 311 317 324 328 325 325 325 319 313 309 307 304 301 302 304 307 311 310 312 317 312 307 315 327 329 321 315 315 314 312 312 311 308 307 307 306 305 304 303 302 301
312 313 315 314 309 309 307 305 315 321 313 313 311 305 306 307 303 301 302 303 302 302 306 305 303 307 307 305 310 311 305 303 305 307 307 306 302 298 297 297 297 300 301 300 299 302 308 310 311 323 334 332 330 325 313 309 312 311 308 305 303 303 306 311 314 319 322 313 310 318 321 317 317 317 316 315 313 311 311 309 308 306 305 304 304 303 302 301
311 318 318 315 311 312 309 305 311 317 315 317 313 307 307 309 306 302 300 301 302 301 304 304 303 308 310 309 314 314 306 304 306 308 307 304 300 297 294 295 298 299 299 300 298 301 311 311 306 312 320 316 314 312 305 305 311 313 312 310 306 304 305 309 315 320 317 313 320 323 312 310 317 317 313 312 310 309 310 308 306 305 304 303 303 303 303 303
305 312 312 309 311 315 313 311 314 315 313 314 312 307 309 309 308 307 303 300 301 301 304 306 306 309 313 313 316 314 308 308 309 306 305 303 300 299 297 295 296 297 297 298 297 302 314 312 304 306 312 307 302 303 304 306 308 309 312 312 309 305 306 308 313 317 313 313 322 320 309 310 314 312 310 310 308 307 308 306 303 302 303 304 304 305 306 306
303 308 303 300 309 317 313 309 311 314 314 316 313 308 309 311 309 308 305 302 304 302 304 309 311 312 313 312 317 319 315 314 313 310 308 305 302 303 304 303 299 294 294 298 298 299 310 312 305 304 309 307 301 300 302 305 307 307 310 312 310 307 305 306 309 312 310 311 313 310 308 309 307 306 306 306 305 305 304 304 305 305 306 307 306 307 308 307
307 310 307 307 310 310 306 303 308 313 311 312 314 308 307 311 310 307 303 305 310 306 303 309 314 313 312 313 318 320 315 315 319 316 310 308 306 307 309 312 306 296 295 300 298 296 302 308 304 304 311 312 304 301 302 303 307 309 311 310 307 305 304 302 303 305 306 308 307 305 306 307 305 305 307 306 306 306 307 308 308 307 307 306 307 308 307 306
305 304 307 317 315 306 305 305 309 317 311 309 314 309 306 310 311 309 305 303 308 309 307 312 314 310 309 311 315 313 307 309 315 313 309 310 312 309 307 308 307 303 300 299 299 300 305 308 303 304 315 317 307 306 310 305 303 308 315 313 305 304 307 305 302 303 305 308 307 305 310 315 313 309 309 311 310 309 310 309 307 306 305 305 308 307 304 303
304 299 303 322 319 305 306 308 309 316 316 316 316 310 308 311 311 312 309 304 302 304 304 308 313 313 311 312 311 306 304 305 306 302 300 300 300 300 300 301 304 305 302 301 302 302 307 316 311 306 315 317 307 307 314 311 310 315 319 316 307 304 308 307 304 303 304 307 310 311 315 319 315 308 308 313 312 309 308 308 306 304 304 305 306 304 302 301
Wind_Speed
8 7 7 6 5 4 5 5 6 9 13 17 18 18 17 15 14 13 15 18 17 17 20 22 23 23 23 22 21 22 19 24 31 37 30 21 24 17 9 4 3 7 11 12 15 14 15 18 16 18 18 13 8 4 6 7 5 5 4 6 4 2 2 3 5 4 3 3 2 1 2 5 3 1 1 2 7 4 4 5 3 4 2 2 4 6 7 7
7 6 6 5 4 4 4 4 5 8 11 15 17 18 17 15 15 14 14 14 15 17 18 19 19 18 18 19 20 22 22 30 37 34 26 25 21 10 4 5 6 8 8 10 10 11 12 7 10 19 13 5 6 6 5 5 6 5 4 6 3 3 2 2 5 4 2 5 4 1 1 3 3 2 1 1 3 4 4 4 5 5 3 1 4 6 6 8
7 6 5 4 4 4 5 4 6 8 10 11 13 15 15 15 15 14 12 11 12 12 12 11 10 11 11 11 13 15 21 30 28 20 26 26 18 9 7 8 7 7 6 9 10 14 16 7 14 19 7 4 6 5 6 5 4 4 4 6 1 4 3 1 1 3 2 5 6 2 1 3 1 2 1 2 1 2 1 3 1 1 4 4 4 5 6 8
5 5 4 4 3 5 7 6 7 8 8 9 11 13 14 13 14 13 11 8 7 6 6 5 4 6 5 5 8 9 16 24 12 15 27 24 15 9 9 9 8 7 6 11 14 17 19 16 19 15 6 6 5 4 7 5 2 4 3 5 3 4 4 4 2 2 2 5 6 2 2 3 1 0 2 4 2 3 4 5 5 5 7 7 7 7 6 8
5 5 5 4 4 7 9 8 8 7 7 8 10 11 12 12 12 12 12 9 7 5 3 3 2 2 2 4 4 2 6 10 6 20 27 20 12 9 10 10 8 9 8 13 14 13 14 13 14 10 6 6 6 5 6 6 3 5 3 3 3 3 4 2 2 2 3 5 5 4 3 2 1 2 2 5 3 3 4 4 8 8 9 10 10 9 8 9
5 5 5 5 6 9 11 9 8 7 7 7 8 9 10 10 9 10 12 11 10 10 8 7 6 6 7 6 6 7 7 5 10 24 25 17 9 9 11 10 10 10 8 9 8 9 10 10 10 7 5 5 7 7 3 6 3 6 2 3 3 3 5 1 2 1 3 7 5 2 1 1 2 2 1 4 5 7 5 4 8 8 9 12 10 10 9 11
5 4 5 6 7 10 11 10 8 6 6 5 5 6 8 9 7 8 10 11 11 12 13 13 13 15 15 16 19 18 12 3 16 25 21 14 6 8 10 8 7 5 2 5 9 9 8 11 11 5 5 6 6 5 4 6 8 9 5 2 3 4 4 0 0 3 5 7 1 1 2 2 2 0 1 3 7 8 6 5 6 6 7 10 9 9 12 13
5 4 6 8 8 10 11 10 8 6 5 4 4 4 6 7 6 7 9 11 11 10 11 11 14 14 13 18 18 14 7 7 22 24 18 11 4 4 6 4 3 1 3 10 10 9 7 9 9 4 6 6 3 3 3 8 10 8 5 2 2 3 3 1 3 6 6 4 2 2 3 2 3 1 1 5 9 6 4 2 2 5 6 8 8 10 12 13
6 7 9 9 9 9 10 9 8 6 4 3 3 2 5 6 6 9 10 11 10 8 7 6 9 9 11 17 15 8 5 12 21 20 15 10 4 0 2 2 1 3 8 10 6 7 4 3 3 5 8 5 5 3 3 5 5 3 4 3 3 3 2 2 4 7 4 2 2 2 3 5 3 1 2 6 7 3 1 3 3 6 6 7 9 11 11 12
8 10 11 9 8 9 10 9 8 7 6 6 6 4 4 7 9 11 11 9 7 7 6 6 8 10 15 17 13 7 6 15 19 17 15 10 4 1 3 5 6 8 12 11 7 8 7 10 10 12 12 5 5 5 5 5 5 3 6 6 6 3 2 4 4 6 3 1 3 1 2 5 2 1 3 5 4 1 4 3 2 6 6 6 8 11 10 11
11 12 12 9 9 10 10 9 8 8 9 11 11 8 7 9 11 11 10 7 5 8 8 9 11 16 24 22 11 5 7 14 18 18 17 10 6 6 6 5 5 10 18 21 18 19 22 22 19 13 7 3 5 8 7 5 6 4 7 7 7 5 4 5 4 5 3 1 4 2 1 5 4 2 4 5 3 0 5 3 1 3 5 6 6 10 10 12
13 14 13 11 10 11 11 10 10 12 12 14 14 13 13 13 13 11 9 7 9 14 14 17 20 25 34 24 7 4 9 15 16 18 23 19 17 17 14 10 7 11 22 23 15 14 15 12 14 10 3 4 5 5 5 3 4 3 5 7 6 7 6 6 3 4 3 1 4 1 1 5 4 3 5 4 2 1 4 4 4 4 5 5 6 9 11 16
13 13 12 11 12 13 13 13 13 14 14 14 14 15 16 15 15 13 12 13 17 19 18 18 17 22 26 11 4 7 10 16 14 16 24 24 25 25 23 21 20 19 24 23 15 11 10 14 26 18 4 7 4 3 7 3 4 2 4 6 3 6 5 5 3 4 2 1 5 1 0 5 7 7 5 3 2 5 3 4 6 5 5 5 5 6 11 17
12 12 12 13 14 15 14 14 15 14 14 13 13 15 17 17 17 18 17 16 17 16 15 16 14 18 18 3 3 10 10 14 15 17 20 21 25 27 27 27 27 26 27 29 26 22 21 29 35 18 4 7 4 4 6 5 4 3 2 2 3 3 2 5 3 4 3 1 5 5 2 4 7 8 5 3 4 7 6 7 6 6 6 5 5 5 8 15
11 11 12 13 14 14 14 14 14 13 13 12 12 13 14 15 16 16 15 15 15 14 14 14 13 16 13 2 3 9 10 14 18 19 17 16 21 22 25 28 29 29 29 29 27 23 24 30 26 10 3 5 5 7 5 4 4 3 2 2 4 3 1 6 2 3 2 2 5 6 2 5 6 8 5 3 3 7 7 7 6 6 6 5 6 5 6 13
10 11 12 13 13 14 14 14 14 13 13 11 13 13 14 14 14 14 13 12 12 10 11 11 12 16 9 1 3 7 9 12 15 16 16 15 17 15 17 23 23 22 22 21 19 18 23 26 13 4 4 5 6 6 4 4 4 4 3 1 3 2 1 4 1 2 2 2 4 4 1 3 3 5 5 3 3 6 6 7 7 6 7 6 5 5 5 9
10 11 12 14 15 15 14 14 13 13 13 12 13 13 14 14 13 14 13 14 12 10 14 13 12 16 8 1 2 4 6 9 11 13 14 15 14 11 11 13 12 11 12 14 14 13 16 14 3 1 6 4 3 4 5 5 3 4 4 2 1 0 0 2 2 2 4 1 2 4 1 5 6 6 7 5 3 6 6 8 7 6 6 6 5 5 6 5
10 11 14 16 17 16 15 15 14 14 15 15 15 16 18 17 16 17 13 10 7 8 12 9 8 9 4 2 2 3 6 7 11 13 11 11 13 12 11 10 7 6 6 9 13 11 8 6 3 3 5 5 5 5 4 0 2 2 2 3 1 1 1 2 2 2 6 4 1 3 3 8 10 9 7 6 2 7 8 7 6 6 6 6 5 5 6 5
10 12 15 17 17 16 15 15 17 19 20 20 20 19 18 17 17 20 24 18 6 3 5 5 5 4 2 1 2 3 4 6 10 13 13 10 9 9 12 13 9 7 5 4 8 7 4 4 6 5 4 5 4 3 4 3 3 5 4 4 3 1 2 4 3 2 4 3 2 2 4 7 10 10 7 6 1 5 7 6 5 6 6 6 5 5 6 5
10 12 15 15 14 13 12 13 15 17 18 17 14 10 8 8 9 10 20 21 8 3 4 2 2 4 3 2 4 4 6 8 10 14 17 14 7 4 9 11 9 9 7 1 4 5 4 6 5 2 1 5 4 2 4 2 3 5 4 5 3 1 3 3 2 4 2 1 3 2 4 8 9 10 8 6 2 4 7 6 7 7 6 6 6 6 6 6
9 12 14 13 11 9 9 9 9 10 9 6 3 3 2 2 5 1 2 9 5 5 7 2 4 8 4 2 6 5 3 7 12 18 19 14 7 4 7 8 7 7 5 2 3 4 5 7 2 2 3 2 2 2 5 4 4 5 4 4 2 1 3 3 1 4 4 1 3 1 5 9 9 9 7 3 1 5 8 7 8 8 7 6 6 7 7 5
9 11 14 13 8 5 5 6 5 5 4 2 1 3 3 5 9 9 7 6 5 7 7 4 6 7 3 4 10 7 4 7 10 16 19 14 8 3 3 7 8 3 5 4 2 4 7 4 3 3 2 3 5 3 5 5 5 4 3 3 1 1 3 4 2 4 5 1 3 4 6 10 10 8 8 4 5 6 6 7 7 7 7 6 6 7 6 5
9 11 14 12 7 4 3 3 4 3 2 2 5 9 11 13 15 12 9 7 3 6 6 5 6 5 5 6 11 9 7 6 3 10 19 15 6 3 4 7 7 3 6 6 4 5 4 0 3 1 4 5 6 5 4 5 5 4 3 2 2 3 2 2 2 5 5 1 2 4 4 7 7 5 6 5 4 5 4 5 7 5 7 8 6 6 6 6
11 12 13 12 7 3 3 4 5 3 2 8 14 17 18 17 13 8 6 6 3 3 3 3 3 3 3 4 10 8 5 3 1 7 18 11 3 2 5 5 5 6 5 5 9 9 4 1 0 4 3 4 4 5 6 4 3 3 2 4 1 3 2 4 4 6 5 2 2 4 4 5 5 2 5 3 2 5 4 4 7 6 7 6 6 6 7 7
12 11 13 12 5 2 3 2 2 7 12 16 19 19 17 13 6 3 4 5 3 3 2 2 2 3 3 5 10 4 4 3 1 4 12 9 3 2 4 2 4 4 3 3 10 9 3 1 1 4 5 5 5 4 5 2 1 2 1 2 2 1 1 4 6 5 4 3 3 5 5 4 5 3 6 4 5 6 5 5 8 8 6 5 6 7 7 7
12 12 13 11 5 5 5 2 7 15 15 14 17 15 11 6 0 2 3 6 3 3 3 2 1 4 4 7 9 2 4 4 2 4 9 8 3 3 4 2 3 3 5 2 6 4 2 2 2 4 5 7 6 4 2 1 4 2 1 1 3 3 1 4 5 3 2 2 3 4 3 4 6 5 6 5 6 8 7 7 9 8 7 6 6 7 6 7
13 13 14 11 7 5 2 4 12 12 8 9 14 10 4 1 2 3 4 6 2 1 2 1 1 4 3 5 6 2 2 3 1 5 9 8 4 4 5 2 2 3 2 3 4 2 2 4 6 5 5 6 5 3 1 2 4 1 1 3 4 2 2 2 3 2 1 2 3 5 4 1 5 5 6 4 4 8 9 9 10 8 8 8 7 7 7 7
14 14 15 12 7 3 3 10 12 7 5 10 11 5 1 2 2 2 6 5 1 0 2 1 1 3 3 3 6 5 1 2 2 3 7 10 6 4 6 2 4 3 1 3 3 0 1 4 5 4 5 5 2 0 1 2 3 1 2 3 2 2 3 2 2 1 1 1 3 6 4 0 5 6 5 4 3 7 9 10 10 9 9 8 8 8 8 7
15 15 15 13 6 4 8 10 8 7 9 11 7 2 0 1 1 4 6 3 1 1 1 1 1 2 4 4 7 5 2 3 2 4 6 8 8 7 6 3 7 7 2 4 5 2 0 1 1 2 4 2 1 1 2 3 2 1 3 3 3 3 3 3 3 1 3 4 2 6 5 2 4 6 5 4 2 6 8 8 9 8 8 8 8 8 8 6
16 16 16 12 5 7 10 7 8 12 10 7 4 1 1 2 4 6 3 1 1 0 1 1 1 2 5 5 5 6 5 3 3 4 5 4 8 9 5 3 6 8 4 7 6 1 0 0 2 2 3 2 3 1 1 2 1 1 3 3 4 3 3 3 2 2 4 3 4 5 4 2 3 6 3 1 3 5 5 6 7 7 7 7 8 7 7 6
15 16 15 10 5 8 8 5 8 11 7 5 2 2 2 3 5 5 1 2 1 1 1 2 2 4 6 5 3 5 4 4 6 5 4 4 7 8 5 2 3 6 5 6 5 2 3 3 1 1 1 2 4 2 1 2 2 2 2 3 2 3 3 3 4 4 4 2 5 5 4 1 1 4 3 4 6 5 4 5 7 7 8 7 6 6 7 6
15 15 14 8 4 7 7 5 7 8 6 4 1 2 4 2 1 2 1 2 1 1 1 1 1 3 4 3 4 4 2 3 5 5 3 2 4 4 3 2 2 4 3 1 3 4 3 2 1 1 1 1 3 2 3 4 4 3 3 4 3 3 4 3 3 3 0 3 2 2 3 1 4 7 6 6 8 6 6 7 7 7 9 9 7 6 5 5
14 14 12 6 4 7 7 6 6 7 7 3 2 4 7 4 2 2 1 1 1 1 1 2 1 2 3 4 3 3 1 2 3 4 2 2 5 3 2 1 2 3 2 2 2 3 2 1 1 2 1 1 2 2 1 2 3 3 2 3 3 2 4 2 3 2 3 4 2 3 3 2 4 5 6 8 8 7 7 7 8 8 9 9 8 7 6 6
14 12 10 6 5 6 7 6 6 6 5 2 3 5 5 2 3 2 1 3 1 2 2 2 2 3 4 3 0 2 2 2 2 3 3 2 4 2 1 1 2 3 4 3 2 2 2 2 1 2 1 2 2 1 2 2 2 1 3 3 3 3 3 1 3 1 3 5 3 4 2 2 2 3 5 7 8 7 6 7 7 7 8 8 8 7 7 7
14 11 9 6 6 6 7 6 5 3 1 2 6 6 3 4 3 2 3 4 2 0 2 2 3 6 4 3 2 1 2 0 1 4 4 3 2 2 1 1 1 2 3 3 2 1 2 3 2 1 2 2 2 1 2 3 1 1 2 3 2 2 4 2 2 4 2 2 3 3 2 4 3 6 6 5 6 7 5 5 5 6 6 5 6 7 7 7
14 11 8 6 5 5 5 5 2 1 1 5 6 2 3 4 2 3 4 3 4 5 4 2 4 5 2 3 3 2 0 1 2 3 2 2 2 2 1 2 1 1 2 3 3 2 1 2 2 2 2 2 1 2 0 1 1 1 1 2 1 3 6 5 1 0 3 2 3 2 3 5 3 4 7 7 7 7 6 6 6 7 7 6 6 7 6 7
13 10 6 5 5 3 3 2 1 0 3 7 4 2 4 2 2 3 2 3 3 4 7 4 1 2 2 1 2 3 1 1 2 2 1 0 1 3 2 1 1 1 2 2 2 3 4 1 1 1 1 1 1 1 1 1 1 2 2 2 1 3 5 4 1 3 5 2 4 3 3 6 3 1 5 9 8 9 8 7 8 8 7 7 8 8 8 8
13 9 6 5 4 2 3 1 1 2 5 6 2 3 2 1 1 3 2 1 2 4 5 4 1 1 3 3 2 3 0 1 1 2 2 1 1 3 3 1 1 1 1 1 1 1 3 2 2 0 1 2 2 2 1 2 1 1 2 1 1 2 1 2 2 1 3 2 4 5 3 3 2 2 5 7 6 8 9 8 8 9 8 7 8 9 9 8
11 6 3 3 3 2 3 2 2 4 6 3 2 2 2 1 2 1 2 1 2 4 3 3 2 1 2 4 4 2 1 2 2 2 2 1 1 1 1 1 1 0 1 1 2 0 1 2 1 1 1 1 2 2 1 1 1 2 2 3 2 3 3 1 2 2 1 0 2 5 4 2 5 5 4 5 7 7 7 8 8 9 9 8 7 8 9 8
7 4 1 1 3 2 3 3 3 6 5 2 4 2 1 1 2 1 0 0 1 1 2 4 3 3 3 3 2 3 1 1 3 2 1 1 1 0 0 0 2 1 1 1 2 1 2 2 1 2 2 1 0 1 2 3 2 1 2 1 1 2 2 1 1 2 2 2 1 1 3 5 6 4 6 7 8 6 6 6 7 9 9 9 8 8 8 8
5 2 2 1 3 2 4 6 5 3 4 2 2 1 1 1 2 1 2 1 1 1 1 5 5 4 4 3 2 3 2 2 2 2 1 1 1 0 1 1 2 1 1 2 2 1 1 2 2 1 2 2 3 2 1 2 2 2 2 2 2 2 3 2 1 2 2 2 3 3 2 7 6 3 6 6 6 6 6 5 7 10 10 10 9 8 8 8
4 1 2 2 1 3 5 6 2 2 4 2 1 1 0 1 2 1 1 2 1 0 2 4 3 3 4 3 2 3 4 2 1 1 1 2 2 1 1 1 1 1 2 2 0 0 2 3 4 1 2 3 3 2 2 2 2 3 1 1 3 3 4 5 2 3 2 2 1 3 0 7 6 4 5 5 6 7 6 5 7 9 9 9 10 9 8 8
3 3 1 5 3 2 6 4 2 3 2 1 1 1 1 1 2 1 0 2 1 0 2 2 1 2 2 2 3 4 3 2 3 2 1 2 1 1 1 1 1 1 2 1 1 0 1 3 3 1 4 4 3 2 2 1 3 3 1 0 2 1 2 4 4 3 3 3 2 2 1 6 6 3 4 5 6 7 6 5 7 8 8 8 9 10 9 8
3 3 0 5 4 0 4 3 2 1 1 1 2 2 1 1 2 2 1 0 0 1 2 1 1 1 1 2 4 3 2 1 1 1 1 2 1 0 0 1 1 0 1 1 1 0 1 1 3 2 4 5 5 4 3 2 0 1 1 1 1 2 5 3 2 4 1 4 5 4 3 7 5 4 4 5 5 7 8 5 6 6 7 8 8 9 9 8
3 2 2 5 7 4 4 4 5 5 3 2 4 1 0 2 1 1 2 2 1 1 2 1 0 3 3 3 4 3 1 1 1 0 1 2 1 1 1 1 0 1 1 1 1 1 1 1 2 4 3 1 1 2 3 2 2 1 1 1 2 3 5 3 2 3 1 3 5 5 5 7 8 7 7 6 6 8 11 8 4 5 6 7 8 8 8 8
3 2 2 4 7 7 3 0 5 6 4 4 4 2 2 2 1 1 2 2 1 1 2 1 1 3 3 2 4 3 2 2 2 2 3 2 1 1 1 1 1 1 1 0 2 3 3 1 2 5 6 5 5 6 4 1 2 2 2 3 4 3 4 4 4 2 4 4 3 6 6 5 12 10 8 9 8 8 10 10 9 7 8 8 8 8 9 8
2 2 2 1 1 3 3 2 4 4 4 5 4 3 4 3 1 1 1 0 1 1 2 1 2 2 3 4 4 2 0 2 3 3 3 2 1 1 2 1 1 1 1 0 1 3 3 1 1 4 4 4 4 4 2 2 2 5 4 5 5 4 4 5 4 5 5 5 4 8 4 3 11 10 8 10 9 8 9 9 8 8 9 9 8 9 9 9
1 2 2 2 2 1 1 3 4 5 3 3 2 2 5 5 3 3 1 1 1 0 1 1 2 3 5 6 5 3 2 2 2 2 2 2 2 1 2 0 1 2 2 1 2 2 4 1 1 2 1 1 1 2 2 0 1 3 5 7 7 7 9 9 8 7 8 6 6 3 5 5 10 10 11 12 9 7 9 9 8 8 8 8 8 9 9 9
1 1 1 2 1 3 2 2 6 8 5 4 2 2 6 8 7 4 1 2 1 3 1 2 5 5 5 4 5 5 5 3 1 3 3 3 3 3 2 1 1 1 2 1 2 1 3 1 2 2 1 3 3 4 2 3 2 2 5 7 8 9 12 11 7 5 7 8 8 2 3 11 12 10 13 13 8 5 7 8 8 8 8 7 8 8 9 9
2 3 2 3 3 2 1 2 6 7 3 2 2 2 5 9 8 3 1 4 3 3 2 3 5 5 4 3 5 3 6 5 4 5 7 6 3 3 3 4 3 2 2 1 1 1 1 1 1 2 2 5 3 4 3 1 3 4 6 6 6 7 8 8 5 2 4 7 9 4 7 12 9 6 9 10 6 5 6 8 8 8 7 8 8 8 8 9
3 4 5 5 3 1 1 2 4 5 3 2 3 4 5 8 9 5 2 1 3 5 5 6 7 6 3 3 4 1 5 5 5 5 8 8 5 4 2 3 6 6 2 1 0 1 2 2 1 4 2 4 2 3 5 2 2 4 8 8 9 7 5 5 4 4 6 5 2 0 3 9 6 3 4 6 5 6 8 9 9 7 7 7 8 9 10 10
5 4 4 6 3 1 2 2 1 3 4 3 4 4 4 6 8 6 4 0 1 2 3 6 8 6 4 4 2 5 5 5 5 3 5 7 6 6 4 4 7 6 5 4 2 1 3 4 2 3 1 5 3 2 3 3 4 4 8 8 13 10 5 4 3 6 9 7 5 4 6 7 4 3 5 7 7 8 8 9 8 8 8 7 7 8 10 10
Wind_Direction
118 120 123 126 121 116 110 98 84 73 83 87 85 92 97 100 98 100 115 119 114 108 111 111 109 109 108 108 103 96 94 87 66 51 46 8 352 354 335 344 84 122 118 101 99 95 71 56 55 61 61 50 25 348 27 31 26 48 72 72 89 114 96 155 177 184 132 139 197 313 48 112 121 345 162 28 27 31 13 5 341 355 6 117 129 138 143 151
116 120 118 122 128 128 129 115 99 86 91 91 82 84 89 94 97 105 121 123 118 112 113 111 107 108 104 103 95 88 90 77 58 40 21 2 5 17 40 84 114 125 112 96 94 91 79 38 46 59 50 33 11 2 23 14 28 63 97 76 104 178 127 161 179 189 149 135 152 167 132 108 129 196 134 82 341 355 38 357 347 6 346 60 139 151 158 164
116 117 111 113 123 135 143 132 115 104 100 96 85 85 87 89 96 107 120 124 122 117 113 108 105 107 97 93 83 83 85 70 54 19 358 3 18 36 71 96 110 107 102 98 95 92 95 89 72 70 53 45 26 12 38 15 23 57 88 77 134 199 138 5 188 181 181 134 128 131 181 85 126 244 39 143 201 340 179 214 329 322 254 242 201 174 173 182
116 111 108 100 107 131 139 138 128 117 106 98 91 90 90 90 95 101 108 116 121 121 119 109 103 104 88 73 70 82 79 66 40 339 351 1 22 50 84 93 88 95 111 107 102 96 93 80 70 70 69 56 1 18 42 358 26 51 62 97 160 175 102 358 325 142 104 111 128 136 90 80 221 316 85 145 111 332 261 218 197 201 216 221 220 202 192 198
115 106 106 93 97 122 131 138 134 124 110 101 96 94 93 93 95 98 98 98 96 98 111 97 96 106 45 13 23 348 56 68 340 337 352 360 31 68 90 88 93 110 120 114 106 95 83 63 60 58 60 51 357 26 23 332 63 73 37 91 142 151 106 334 300 127 104 92 95 88 94 119 224 36 105 146 144 240 250 227 206 198 194 197 206 204 202 207
121 112 110 101 104 120 130 138 137 129 115 102 97 96 96 96 99 102 98 93 87 84 87 88 81 80 64 50 70 54 61 98 326 340 350 360 44 87 94 99 108 109 118 119 98 80 68 47 53 54 59 59 30 46 6 324 59 96 54 28 36 108 115 234 311 46 106 93 83 98 152 69 53 17 160 166 195 218 240 251 225 215 193 189 193 196 203 211
131 126 120 113 114 124 135 142 143 136 120 108 99 98 102 100 103 111 106 97 90 86 90 94 93 93 92 92 86 68 73 73 336 344 351 5 56 104 101 111 107 107 156 99 83 86 75 60 76 87 80 81 59 69 63 28 52 83 95 24 27 73 85 294 47 58 81 91 88 158 113 36 44 353 100 218 237 239 271 292 244 223 189 185 193 200 207 214
130 134 130 122 119 126 139 146 148 142 130 124 106 104 107 100 109 119 111 100 93 88 92 107 110 105 105 102 89 63 59 341 341 351 1 13 53 113 116 112 87 194 95 80 88 104 86 70 98 132 80 79 103 101 65 52 48 64 108 160 57 66 55 75 88 56 59 73 8 66 56 301 241 196 131 249 253 253 275 314 188 174 165 184 203 213 216 222
114 130 131 124 120 124 137 143 146 145 135 116 83 83 104 104 118 121 115 104 94 85 86 118 117 115 122 107 88 61 11 344 351 2 15 25 21 121 163 82 22 180 99 77 71 91 88 79 137 147 112 108 98 61 331 62 58 62 109 125 90 72 13 41 68 36 30 31 8 77 346 301 232 210 263 248 246 238 125 78 121 141 154 197 217 227 227 234
108 123 126 125 124 126 134 138 139 129 108 88 67 58 97 115 126 128 124 110 93 89 90 110 125 138 123 100 78 65 349 357 14 22 32 40 38 98 127 94 100 112 92 64 48 74 109 134 130 122 113 103 80 27 344 85 114 124 106 96 77 75 7 45 71 18 356 18 21 104 277 292 275 315 273 255 257 219 115 90 74 139 177 223 230 238 241 248
110 116 118 123 127 129 130 128 124 110 101 92 78 75 103 122 130 138 134 115 96 98 100 108 133 132 98 80 79 79 359 15 32 37 47 56 65 65 68 99 104 96 89 72 70 90 106 124 129 121 101 87 92 52 35 87 115 114 102 83 32 25 36 36 64 11 351 101 26 60 252 306 335 344 230 244 294 354 141 159 279 170 218 249 253 262 260 259
109 108 111 119 123 125 123 119 114 107 105 96 84 84 102 120 128 135 129 119 111 110 116 114 120 111 85 68 66 55 18 34 42 50 59 64 67 64 66 83 91 107 108 90 75 91 104 130 118 94 74 124 111 73 89 97 98 101 80 80 6 8 37 9 13 355 355 52 347 25 1 326 315 252 240 259 310 76 137 188 255 248 258 274 277 281 273 268
106 101 106 113 116 119 118 115 112 109 106 99 92 90 100 114 121 126 124 123 121 118 124 119 114 102 83 61 21 43 40 47 56 69 69 72 74 73 74 82 88 94 101 92 78 81 96 113 101 91 84 103 110 129 119 71 70 85 46 85 22 10 23 350 351 337 358 44 340 31 108 301 273 256 269 289 155 125 144 227 256 264 275 281 282 287 278 273
103 99 104 109 113 115 115 114 113 111 106 101 99 99 103 112 118 124 125 127 125 120 121 112 101 91 82 76 23 47 53 57 64 67 66 76 80 77 77 80 85 85 87 88 86 87 94 96 92 90 74 84 115 115 77 21 37 65 33 71 49 65 346 322 349 359 26 40 10 67 143 267 271 272 297 304 172 151 187 229 246 260 271 277 278 282 279 278
104 103 106 110 114 114 113 113 113 111 108 103 100 104 109 114 122 124 124 128 121 113 113 102 96 92 79 56 29 46 61 60 53 49 50 69 79 78 78 80 83 83 86 87 86 86 85 83 78 76 66 42 64 77 45 5 27 42 94 344 358 96 291 316 346 34 35 304 13 68 186 268 269 265 295 334 171 167 200 231 248 257 268 275 277 281 280 283
109 109 111 115 115 113 112 111 111 111 108 104 103 108 111 113 122 125 124 121 113 113 107 87 90 99 92 62 39 37 46 42 36 43 49 61 75 82 80 83 84 80 81 77 79 75 67 71 66 55 79 36 44 75 54 36 10 353 86 114 324 69 38 323 346 35 39 281 352 41 208 269 281 263 299 339 174 179 216 244 255 258 267 271 276 284 279 288
115 114 117 118 113 109 110 111 114 114 110 108 111 114 110 108 117 125 121 106 97 108 105 85 80 88 79 341 44 13 3 14 25 43 52 54 65 79 80 82 73 66 72 57 51 44 39 54 66 37 62 46 53 80 56 29 329 333 40 93 266 250 129 323 306 346 24 57 313 10 229 245 271 277 297 309 191 177 218 241 251 257 269 275 278 283 279 282
119 120 123 121 111 105 107 112 115 115 113 111 111 111 106 103 106 104 96 99 100 96 92 54 42 76 57 339 40 317 315 357 27 37 45 50 55 62 61 58 39 25 44 33 29 24 15 29 60 64 33 19 34 56 80 190 209 135 66 100 63 282 222 286 262 316 13 24 313 356 306 267 287 293 293 303 189 179 221 240 255 264 271 277 280 279 278 276
125 129 131 122 111 105 106 113 117 118 118 115 113 111 105 95 90 72 54 59 68 68 75 349 4 104 144 60 344 322 355 17 31 32 28 27 37 52 45 42 44 46 47 20 14 14 20 32 41 59 17 351 4 57 118 167 154 138 152 127 118 236 247 252 253 312 4 10 309 295 285 279 293 293 286 304 283 190 241 269 271 269 271 272 277 275 270 268
132 139 140 126 114 111 110 116 122 125 123 120 118 110 103 81 66 42 38 51 65 86 91 319 8 93 74 20 330 359 50 53 44 29 21 11 6 29 20 21 37 48 52 17 347 357 58 65 47 67 282 296 285 220 126 104 108 116 111 92 110 200 289 275 282 319 341 6 280 245 279 278 276 274 270 295 301 215 247 262 259 261 263 261 263 269 265 259
142 149 151 140 125 116 121 128 127 139 141 140 137 83 151 128 81 172 38 60 62 62 72 69 78 77 68 12 352 359 64 56 36 23 17 8 11 29 355 15 49 40 19 305 306 341 56 76 45 263 232 284 312 172 129 97 79 81 98 88 70 181 269 267 232 310 344 5 261 326 327 288 270 267 270 287 193 220 230 229 245 250 252 259 256 264 267 268
155 158 163 159 148 133 141 143 138 161 176 239 200 87 117 138 122 138 131 92 42 34 54 62 63 57 52 43 16 13 63 45 19 8 8 5 19 42 352 38 71 52 346 358 7 20 48 76 271 278 174 96 42 80 109 97 81 60 72 93 30 295 277 280 285 327 351 11 266 341 339 290 275 270 272 249 203 234 235 217 231 236 245 259 247 251 259 264
167 164 170 172 170 175 188 188 193 204 243 207 133 113 111 116 124 125 104 100 60 20 29 36 52 27 7 31 17 26 68 54 357 344 355 4 27 60 68 62 71 56 359 18 97 102 70 311 281 314 142 106 50 38 64 72 67 50 54 83 293 319 347 291 312 339 336 12 289 304 301 286 296 292 268 246 223 264 271 240 243 230 236 250 249 250 243 234
172 169 174 175 173 209 236 228 233 239 176 144 126 121 125 125 130 125 91 90 76 22 23 34 88 53 15 13 8 31 89 74 112 332 349 13 80 47 80 105 81 58 7 32 94 100 93 221 75 73 92 103 82 33 41 66 35 7 81 102 281 318 341 257 289 334 331 10 5 328 326 305 326 329 248 267 329 291 305 301 273 252 241 255 272 263 237 225
175 175 174 170 171 192 183 198 186 146 136 131 128 129 132 133 138 119 75 68 40 334 351 33 76 47 19 5 2 26 119 55 58 316 348 29 90 49 80 120 86 86 267 34 79 84 70 249 138 77 54 69 93 45 30 98 60 350 58 119 164 205 286 297 321 357 18 14 4 16 13 300 316 313 253 300 343 299 316 324 278 269 270 261 261 255 239 235
180 178 171 171 167 137 140 119 123 132 126 124 135 138 133 135 92 346 70 68 37 303 334 2 28 14 350 352 353 34 99 21 335 358 13 27 40 104 87 1 55 126 209 124 80 93 38 359 79 106 86 67 74 61 360 131 99 41 327 143 140 134 49 349 348 20 54 332 326 39 77 268 314 320 276 311 326 295 302 297 272 271 275 257 246 247 238 234
184 180 175 179 169 145 150 146 140 135 121 140 151 146 143 167 338 351 61 57 20 274 19 327 356 17 348 341 350 74 106 313 330 31 26 24 7 87 83 11 52 81 183 111 63 39 344 4 27 51 74 69 61 52 348 115 98 26 275 117 114 87 52 9 9 38 75 264 315 24 79 221 298 289 280 312 313 298 297 282 273 264 257 254 249 245 236 229
185 184 183 183 181 183 158 145 149 143 131 155 160 154 224 289 313 16 79 79 317 51 55 310 350 17 348 7 28 74 142 320 64 358 5 36 20 55 81 94 134 105 13 112 98 355 356 11 12 25 59 72 70 2 221 134 82 281 193 130 104 99 113 102 70 65 1 26 323 342 25 55 276 278 304 345 322 299 287 270 269 261 251 251 249 245 238 232
183 186 186 184 187 166 145 144 148 132 131 148 154 148 278 326 359 55 78 113 285 17 42 348 34 348 347 17 23 35 35 23 63 306 336 40 34 52 91 153 135 114 44 87 126 175 70 7 227 100 75 93 174 233 187 142 69 173 154 103 58 67 76 66 78 105 27 40 281 308 359 31 279 286 321 6 324 276 274 269 268 264 259 251 248 249 243 240
182 186 185 181 178 156 147 135 128 125 124 140 143 128 327 19 61 66 54 220 137 282 277 7 282 332 25 51 13 9 38 19 338 337 354 32 25 41 92 162 114 98 45 49 81 131 358 279 197 96 79 150 147 94 136 135 90 133 109 54 37 23 27 47 50 89 59 9 263 275 332 22 308 292 279 241 226 230 254 289 293 289 287 263 247 247 242 239
180 183 182 177 174 169 158 124 128 132 128 137 140 2 30 36 62 92 203 249 127 270 354 29 330 15 50 86 48 6 33 1 334 11 31 13 9 21 54 83 65 58 29 31 44 1 0 20 353 4 26 114 103 75 44 40 40 88 81 47 23 337 1 23 354 35 63 311 263 264 306 357 264 276 260 253 260 241 228 263 283 299 306 290 264 253 248 243
176 179 179 175 176 180 168 145 147 151 151 148 37 29 81 55 6 142 265 326 18 243 117 90 316 37 52 69 47 349 354 10 7 50 66 31 34 20 34 136 135 52 14 335 31 10 4 27 331 302 348 97 106 76 10 11 31 62 63 55 47 348 8 12 334 9 79 261 268 309 328 299 230 251 260 271 273 258 231 234 253 276 291 295 288 274 267 252
172 175 174 163 160 174 165 151 153 161 174 177 25 54 78 81 222 207 248 21 51 277 82 76 42 71 70 60 35 319 6 30 0 43 82 88 70 38 354 176 138 98 151 187 81 30 9 314 351 21 338 37 99 102 20 357 36 58 88 82 74 60 43 347 296 329 298 276 298 325 320 303 285 271 243 249 260 254 246 243 246 256 267 278 284 285 283 266
166 170 172 148 124 151 153 144 142 149 174 160 60 70 84 135 216 188 215 236 258 336 32 75 75 53 53 68 278 268 76 43 330 34 33 36 63 55 338 327 12 97 116 115 125 111 115 238 350 41 309 11 55 100 130 130 69 77 162 113 100 135 118 247 252 237 289 293 305 317 303 200 289 291 227 237 266 273 267 259 254 254 254 265 278 279 275 269
161 162 165 139 105 122 137 139 137 132 159 79 61 76 130 215 227 169 201 222 218 40 31 42 77 62 23 356 342 252 151 133 14 50 31 35 123 155 164 270 313 94 118 131 183 110 99 242 270 330 294 51 54 273 116 108 90 187 166 79 66 144 125 115 170 180 205 317 307 299 251 212 237 284 280 290 300 297 293 289 292 281 273 284 287 274 264 261
156 152 146 124 98 108 132 142 142 31 64 75 62 80 190 218 197 168 184 157 152 160 131 81 67 75 359 311 2 2 358 97 56 58 29 36 165 187 191 225 236 78 132 152 170 129 93 265 301 352 355 59 118 232 113 115 166 116 88 75 131 134 115 112 127 63 78 58 295 303 291 292 321 289 297 345 351 332 333 329 317 297 297 310 289 271 266 262
147 136 116 90 82 113 147 151 172 337 73 79 81 210 214 212 179 178 182 122 133 136 117 114 93 109 172 202 299 317 350 80 39 73 163 269 178 182 181 220 195 105 160 149 172 171 138 146 331 42 86 327 256 171 57 228 183 92 102 152 181 108 100 105 82 4 37 43 290 336 309 298 354 316 314 358 1 337 334 329 317 305 303 298 280 273 270 266
137 117 89 67 71 131 150 130 151 117 74 71 75 237 202 173 195 177 176 152 124 98 98 130 150 160 181 170 222 263 159 202 349 72 156 223 166 160 152 150 77 59 232 151 143 181 115 113 308 358 151 299 335 53 1 302 61 101 157 155 102 116 93 33 72 47 18 3 297 316 305 259 217 239 311 340 326 311 317 324 327 318 309 295 286 289 288 286
132 107 60 41 58 121 151 160 148 87 70 86 207 230 183 196 257 198 178 252 126 108 120 167 138 85 168 161 173 190 160 203 181 117 170 190 146 146 130 156 145 82 290 132 134 237 70 103 246 263 219 309 4 41 258 269 53 29 2 0 24 124 139 46 71 133 168 68 290 316 334 275 229 220 229 268 276 282 296 311 320 310 304 299 292 294 297 297
127 95 318 353 64 120 157 133 73 63 74 177 201 192 161 214 248 281 335 335 137 134 171 171 141 122 168 185 180 165 100 145 156 145 209 163 115 241 357 99 149 157 299 38 102 77 38 75 208 300 326 294 299 255 204 181 151 83 43 15 2 68 112 143 62 79 122 138 173 333 327 277 250 209 193 235 262 262 260 279 297 298 299 301 293 290 295 296
109 84 274 352 76 152 128 76 45 65 101 138 172 170 226 177 144 10 342 28 94 252 172 143 136 137 154 168 188 169 115 98 134 125 195 185 114 151 337 61 130 155 119 72 68 70 67 108 145 23 341 222 234 265 166 155 154 142 145 178 159 114 113 122 338 338 80 116 164 152 286 275 260 203 199 226 250 260 253 252 279 291 295 298 297 291 289 289
94 151 253 31 79 182 102 62 19 86 105 138 166 163 216 102 104 85 329 26 66 318 72 102 117 130 146 148 168 163 123 110 159 123 182 208 149 164 306 80 121 107 105 126 292 223 131 98 97 124 240 230 264 322 88 109 110 114 107 132 134 128 115 118 202 248 107 78 134 111 289 272 260 212 211 235 253 266 267 249 268 287 290 292 297 298 295 288
104 184 200 28 352 188 89 65 308 33 49 247 260 13 6 78 102 125 355 16 51 106 46 60 114 119 159 151 136 158 143 137 177 158 178 206 137 173 214 109 137 19 77 128 230 209 108 81 82 310 302 315 327 356 50 68 90 102 307 193 137 144 109 136 172 165 130 164 165 79 294 269 273 250 226 251 268 281 282 252 253 280 293 293 297 303 307 304
124 165 126 17 357 187 120 144 186 113 277 272 49 29 322 60 105 126 146 140 196 152 111 125 158 98 135 111 101 146 174 148 160 103 133 163 120 80 119 33 357 47 73 163 165 143 291 87 99 67 355 345 349 359 341 309 174 167 238 234 184 106 93 117 137 80 84 204 156 128 239 254 269 293 287 276 284 300 300 265 228 255 289 303 305 308 312 314
106 90 301 359 28 70 145 178 149 140 180 128 98 133 80 57 77 153 149 144 191 183 135 131 140 95 99 90 78 78 52 74 157 103 80 112 18 351 24 359 3 139 256 257 157 101 158 153 116 119 123 244 262 270 269 241 210 209 160 191 216 140 120 148 122 75 280 225 149 163 224 261 286 310 320 314 323 326 322 324 301 267 282 300 308 313 316 318
121 88 293 335 21 56 81 128 110 125 164 145 126 172 132 106 281 314 111 128 165 165 90 79 147 96 78 89 85 67 11 11 79 120 125 140 219 297 341 26 77 191 262 308 62 82 111 96 90 139 162 185 190 213 239 138 141 196 186 187 202 172 133 125 111 141 195 163 186 224 217 283 296 301 318 322 329 327 317 321 323 313 312 314 313 315 316 317
132 155 159 176 6 47 30 3 97 117 170 156 143 182 158 142 178 44 56 166 162 135 60 62 154 141 140 144 117 103 341 9 43 100 124 149 171 305 314 56 60 314 291 7 44 84 100 45 62 144 190 207 181 210 288 29 178 195 179 183 194 182 148 140 166 204 163 125 271 256 189 225 277 286 303 303 308 312 303 304 310 311 313 313 313 314 317 320
133 174 149 141 184 170 191 210 154 116 118 121 95 138 148 150 163 160 168 28 51 208 114 90 246 210 182 168 135 130 148 54 43 135 138 152 146 58 7 355 328 338 27 16 334 101 114 158 207 160 252 283 75 323 307 218 219 196 175 184 186 179 180 189 208 199 161 172 246 230 146 214 261 282 291 286 287 292 293 297 301 300 299 302 313 320 321 323
90 124 29 20 112 174 190 192 143 124 113 102 84 154 164 167 179 192 169 92 14 287 154 176 241 213 179 163 115 136 177 154 140 207 179 155 154 127 107 184 259 344 65 76 335 90 132 159 184 165 319 342 356 333 294 184 194 246 216 202 188 186 196 207 224 201 185 235 267 270 257 268 267 264 269 278 289 287 285 299 308 306 308 316 322 321 320 322
138 162 169 50 58 124 61 63 125 133 128 102 124 186 172 165 176 198 148 124 157 219 180 198 210 162 139 130 107 147 206 168 152 197 172 145 161 185 182 183 165 72 41 100 350 337 142 167 156 129 353 322 325 353 355 158 187 232 251 229 192 190 210 228 248 215 202 262 281 288 283 279 274 256 260 277 308 325 311 311 307 301 310 324 327 323 320 321
120 128 139 108 75 2 56 70 117 131 152 180 169 179 179 181 182 164 117 141 165 175 186 181 162 132 89 75 79 290 239 185 175 193 161 145 160 179 185 166 146 138 133 154 134 13 94 114 90 76 28 293 292 0 339 354 143 251 272 243 197 183 202 220 221 200 191 201 233 346 267 258 261 320 307 292 322 344 323 310 305 307 320 329 325 321 318 316
117 91 104 103 89 307 113 111 122 147 184 204 172 168 184 192 182 145 117 197 138 130 197 173 145 121 86 80 33 294 256 188 169 149 127 119 100 92 88 85 104 128 156 147 105 39 105 120 133 94 75 264 275 326 307 16 49 295 274 220 188 190 220 240 253 234 207 167 146 198 229 235 248 331 324 309 332 343 318 301 302 310 319 322 311 306 311 312